QPF
0.00 0.00 0.00 0.00 0.01 0.01 0.01 0.01 0.02 0.02 0.09 0.10 0.08 0.08 0.08 0.07 0.06 0.03 0.01 0.00 0.00 0.01 0.02 0.06 0.04 0.00 0.00 0.00 0.00 0.00 0.00 0.00 0.00 0.00 0.00 0.00 0.01 0.01 0.00 0.00 0.00 0.00 0.00 0.00 0.00
0.00 0.00 0.00 0.01 0.01 0.01 0.01 0.01 0.01 0.03 0.04 0.07 0.11 0.07 0.08 0.04 0.02 0.00 0.00 0.00 0.03 0.02 0.01 0.03 0.02 0.00 0.00 0.00 0.00 0.00 0.00 0.00 0.00 0.00 0.00 0.00 0.00 0.00 0.00 0.00 0.00 0.00 0.00 0.00 0.00
0.00 0.00 0.01 0.01 0.00 0.00 0.00 0.00 0.00 0.00 0.01 0.04 0.11 0.01 0.03 0.04 0.01 0.00 0.04 0.05 0.05 0.01 0.00 0.01 0.02 0.00 0.00 0.00 0.00 0.00 0.00 0.00 0.00 0.00 0.00 0.00 0.00 0.00 0.00 0.00 0.00 0.00 0.00 0.00 0.00
0.00 0.00 0.00 0.00 0.00 0.00 0.00 0.00 0.00 0.00 0.00 0.01 0.05 0.00 0.01 0.02 0.01 0.01 0.01 0.00 0.00 0.00 0.00 0.03 0.01 0.00 0.00 0.00 0.00 0.00 0.00 0.00 0.00 0.00 0.00 0.00 0.00 0.00 0.00 0.00 0.00 0.00 0.00 0.00 0.00
0.00 0.00 0.00 0.00 0.00 0.00 0.00 0.00 0.00 0.00 0.00 0.04 0.04 0.01 0.02 0.01 0.01 0.00 0.00 0.00 0.00 0.00 0.01 0.03 0.01 0.00 0.00 0.00 0.00 0.00 0.00 0.00 0.00 0.00 0.00 0.00 0.00 0.00 0.00 0.00 0.00 0.00 0.00 0.00 0.00
0.00 0.00 0.00 0.00 0.00 0.00 0.00 0.00 0.00 0.00 0.01 0.04 0.04 0.03 0.01 0.02 0.00 0.00 0.00 0.00 0.00 0.00 0.00 0.01 0.01 0.00 0.00 0.00 0.00 0.00 0.00 0.00 0.00 0.00 0.00 0.00 0.00 0.01 0.02 0.00 0.00 0.00 0.00 0.00 0.00
0.00 0.00 0.00 0.00 0.00 0.00 0.00 0.00 0.00 0.00 0.00 0.00 0.02 0.01 0.01 0.00 0.00 0.00 0.00 0.00 0.00 0.00 0.00 0.00 0.00 0.01 0.00 0.01 0.00 0.00 0.00 0.00 0.00 0.00 0.00 0.00 0.00 0.01 0.00 0.00 0.00 0.00 0.00 0.00 0.00
0.00 0.00 0.00 0.00 0.00 0.00 0.00 0.00 0.00 0.00 0.00 0.01 0.04 0.01 0.00 0.00 0.00 0.00 0.00 0.00 0.00 0.00 0.00 0.01 0.00 0.04 0.01 0.00 0.00 0.00 0.00 0.00 0.00 0.00 0.00 0.00 0.00 0.00 0.00 0.00 0.00 0.00 0.00 0.00 0.00
0.00 0.00 0.00 0.00 0.00 0.00 0.00 0.00 0.00 0.00 0.00 0.02 0.01 0.00 0.00 0.00 0.00 0.00 0.00 0.00 0.00 0.00 0.00 0.01 0.01 0.04 0.01 0.00 0.00 0.00 0.00 0.00 0.00 0.00 0.00 0.00 0.00 0.00 0.00 0.00 0.00 0.00 0.00 0.00 0.00
0.00 0.00 0.00 0.00 0.00 0.00 0.00 0.00 0.00 0.00 0.00 0.00 0.00 0.00 0.00 0.00 0.00 0.00 0.01 0.00 0.00 0.00 0.01 0.03 0.05 0.03 0.01 0.00 0.00 0.00 0.00 0.00 0.00 0.00 0.00 0.00 0.00 0.00 0.01 0.00 0.00 0.00 0.00 0.00 0.00
0.00 0.00 0.00 0.00 0.00 0.00 0.00 0.00 0.00 0.00 0.00 0.00 0.00 0.00 0.00 0.00 0.00 0.01 0.00 0.00 0.00 0.00 0.02 0.03 0.02 0.00 0.00 0.00 0.00 0.00 0.00 0.00 0.00 0.00 0.00 0.00 0.00 0.00 0.01 0.00 0.00 0.00 0.00 0.00 0.00
0.00 0.00 0.00 0.00 0.00 0.00 0.00 0.00 0.00 0.00 0.00 0.00 0.00 0.00 0.00 0.00 0.00 0.01 0.00 0.00 0.00 0.00 0.02 0.01 0.01 0.00 0.00 0.00 0.00 0.00 0.00 0.00 0.00 0.00 0.00 0.00 0.00 0.00 0.00 0.00 0.00 0.00 0.00 0.00 0.00
0.00 0.00 0.00 0.00 0.00 0.00 0.00 0.00 0.00 0.00 0.00 0.00 0.00 0.00 0.00 0.00 0.01 0.01 0.00 0.00 0.00 0.00 0.00 0.00 0.00 0.00 0.00 0.00 0.00 0.00 0.00 0.00 0.00 0.00 0.00 0.00 0.00 0.00 0.00 0.00 0.00 0.00 0.00 0.00 0.00
0.00 0.00 0.00 0.00 0.00 0.00 0.00 0.00 0.00 0.00 0.00 0.00 0.00 0.00 0.00 0.00 0.00 0.00 0.01 0.00 0.00 0.00 0.00 0.00 0.00 0.00 0.00 0.00 0.00 0.00 0.00 0.00 0.00 0.00 0.00 0.00 0.00 0.00 0.00 0.00 0.00 0.00 0.00 0.00 0.00
0.00 0.00 0.00 0.00 0.00 0.00 0.00 0.00 0.00 0.00 0.00 0.00 0.00 0.00 0.00 0.00 0.00 0.00 0.00 0.00 0.00 0.00 0.00 0.00 0.00 0.00 0.00 0.00 0.00 0.00 0.00 0.00 0.00 0.00 0.00 0.00 0.00 0.00 0.00 0.00 0.00 0.00 0.00 0.00 0.00
0.00 0.00 0.00 0.00 0.00 0.00 0.00 0.00 0.00 0.00 0.00 0.00 0.00 0.00 0.00 0.00 0.00 0.00 0.00 0.00 0.00 0.00 0.00 0.00 0.00 0.00 0.00 0.00 0.00 0.00 0.00 0.00 0.00 0.00 0.00 0.00 0.00 0.00 0.00 0.00 0.00 0.00 0.00 0.00 0.00
0.00 0.00 0.00 0.00 0.00 0.00 0.00 0.00 0.00 0.00 0.00 0.00 0.00 0.00 0.00 0.00 0.00 0.00 0.00 0.00 0.00 0.00 0.00 0.00 0.00 0.00 0.00 0.00 0.00 0.00 0.00 0.00 0.00 0.00 0.00 0.00 0.00 0.00 0.00 0.00 0.00 0.00 0.00 0.00 0.00
0.00 0.00 0.00 0.00 0.00 0.00 0.00 0.00 0.00 0.00 0.00 0.00 0.00 0.00 0.00 0.00 0.00 0.00 0.00 0.00 0.00 0.00 0.00 0.00 0.00 0.00 0.00 0.00 0.00 0.00 0.00 0.00 0.00 0.00 0.00 0.00 0.00 0.00 0.00 0.00 0.00 0.00 0.00 0.00 0.00
0.00 0.00 0.00 0.00 0.00 0.00 0.00 0.00 0.00 0.00 0.00 0.00 0.00 0.00 0.00 0.00 0.00 0.00 0.00 0.00 0.00 0.00 0.00 0.00 0.00 0.00 0.00 0.00 0.00 0.00 0.00 0.00 0.00 0.00 0.00 0.00 0.00 0.00 0.00 0.00 0.00 0.00 0.00 0.00 0.00
0.00 0.00 0.00 0.00 0.00 0.00 0.00 0.00 0.00 0.00 0.00 0.00 0.00 0.00 0.00 0.00 0.00 0.00 0.00 0.00 0.00 0.00 0.00 0.00 0.00 0.00 0.00 0.00 0.00 0.00 0.00 0.00 0.00 0.00 0.00 0.00 0.00 0.00 0.00 0.00 0.00 0.00 0.00 0.00 0.00
0.00 0.00 0.00 0.00 0.00 0.00 0.00 0.00 0.00 0.00 0.00 0.00 0.00 0.00 0.00 0.00 0.00 0.00 0.00 0.00 0.00 0.00 0.00 0.00 0.00 0.00 0.00 0.00 0.00 0.00 0.00 0.00 0.00 0.00 0.00 0.00 0.00 0.00 0.00 0.00 0.00 0.00 0.00 0.00 0.00
0.00 0.00 0.00 0.00 0.00 0.00 0.00 0.00 0.00 0.00 0.00 0.00 0.00 0.00 0.00 0.00 0.00 0.00 0.00 0.00 0.00 0.00 0.00 0.00 0.00 0.00 0.00 0.00 0.00 0.00 0.00 0.00 0.00 0.00 0.00 0.00 0.00 0.00 0.00 0.00 0.00 0.00 0.00 0.00 0.00
0.00 0.00 0.00 0.00 0.00 0.00 0.00 0.00 0.00 0.00 0.00 0.00 0.00 0.00 0.00 0.00 0.00 0.00 0.00 0.00 0.00 0.00 0.00 0.00 0.00 0.00 0.00 0.00 0.00 0.00 0.00 0.00 0.00 0.00 0.00 0.00 0.00 0.00 0.00 0.00 0.00 0.00 0.00 0.00 0.00
0.00 0.00 0.00 0.00 0.00 0.00 0.00 0.00 0.00 0.00 0.00 0.00 0.00 0.00 0.00 0.00 0.00 0.00 0.00 0.00 0.00 0.00 0.00 0.00 0.00 0.00 0.00 0.00 0.00 0.00 0.00 0.00 0.00 0.00 0.00 0.00 0.00 0.00 0.00 0.00 0.00 0.00 0.00 0.00 0.00
0.00 0.00 0.00 0.00 0.00 0.00 0.00 0.00 0.00 0.00 0.00 0.00 0.00 0.00 0.00 0.00 0.00 0.00 0.00 0.00 0.00 0.00 0.00 0.00 0.00 0.00 0.00 0.00 0.00 0.00 0.00 0.00 0.00 0.00 0.00 0.00 0.00 0.00 0.00 0.00 0.00 0.00 0.00 0.00 0.00
0.00 0.00 0.00 0.00 0.00 0.00 0.00 0.00 0.00 0.00 0.00 0.00 0.00 0.00 0.00 0.00 0.00 0.00 0.00 0.00 0.00 0.00 0.00 0.00 0.00 0.00 0.00 0.00 0.00 0.00 0.00 0.00 0.00 0.00 0.00 0.00 0.00 0.00 0.00 0.00 0.00 0.00 0.00 0.00 0.00
0.00 0.00 0.00 0.00 0.00 0.00 0.00 0.00 0.00 0.00 0.00 0.00 0.00 0.00 0.00 0.00 0.00 0.00 0.00 0.00 0.00 0.00 0.00 0.00 0.00 0.00 0.00 0.00 0.00 0.00 0.00 0.00 0.00 0.00 0.00 0.00 0.00 0.00 0.00 0.00 0.00 0.00 0.00 0.00 0.00
MSLP
1015.29 1014.92 1014.37 1013.70 1013.20 1012.67 1012.02 1011.59 1011.28 1010.75 1010.44 1010.42 1010.44 1010.05 1009.87 1009.79 1009.97 1010.22 1009.88 1010.08 1010.17 1009.72 1010.14 1009.57 1009.21 1009.44 1010.42 1010.87 1010.43 1010.98 1011.63 1011.43 1010.40 1009.65 1008.94 1008.55 1009.06 1010.14 1010.45 1011.09 1011.93 1012.14 1012.27 1013.03 1014.33
1015.19 1014.81 1014.29 1013.61 1013.18 1012.64 1011.91 1011.34 1010.83 1010.48 1010.08 1009.79 1009.92 1009.97 1009.79 1009.74 1009.89 1009.85 1009.84 1009.50 1009.39 1009.40 1010.08 1009.88 1009.33 1009.33 1010.23 1010.62 1010.47 1010.55 1010.76 1010.04 1009.23 1008.44 1008.31 1008.19 1008.44 1009.67 1010.75 1011.62 1012.47 1012.48 1013.04 1013.96 1014.46
1014.89 1014.49 1014.12 1013.44 1012.90 1012.29 1011.71 1011.16 1010.63 1010.09 1009.59 1009.28 1009.53 1009.68 1009.72 1009.82 1009.76 1009.54 1009.51 1009.54 1009.82 1010.38 1010.31 1010.27 1009.95 1009.33 1009.91 1010.21 1009.86 1009.78 1009.61 1009.29 1008.52 1007.91 1007.65 1007.96 1008.55 1009.10 1010.08 1011.47 1011.06 1011.96 1013.04 1014.14 1014.67
1014.85 1014.13 1013.70 1013.19 1012.68 1012.04 1011.35 1010.87 1010.32 1009.63 1009.20 1008.93 1009.11 1009.60 1009.60 1009.65 1009.67 1009.28 1009.16 1009.27 1009.47 1009.71 1010.05 1010.24 1009.90 1009.24 1009.30 1009.15 1009.24 1009.22 1008.96 1008.53 1008.08 1007.63 1007.59 1007.83 1008.29 1009.20 1008.94 1009.46 1010.31 1010.58 1011.77 1013.49 1014.56
1014.40 1013.93 1013.41 1012.99 1012.41 1011.72 1011.13 1010.46 1009.87 1009.32 1009.05 1008.85 1008.83 1009.08 1009.72 1009.51 1009.01 1009.06 1009.31 1009.67 1009.53 1009.65 1009.39 1009.63 1008.99 1008.57 1008.28 1008.59 1009.36 1008.84 1008.84 1008.37 1008.03 1007.77 1007.49 1007.75 1008.29 1008.96 1009.94 1009.85 1010.91 1011.82 1012.64 1013.92 1014.91
1014.23 1013.74 1013.26 1012.77 1012.08 1011.32 1010.78 1010.17 1009.50 1008.93 1008.86 1008.37 1008.24 1008.82 1009.31 1009.14 1008.60 1008.96 1009.15 1009.44 1009.78 1009.44 1009.03 1009.08 1008.50 1007.52 1007.82 1008.03 1008.72 1008.34 1008.56 1008.42 1008.38 1008.11 1007.71 1007.93 1008.90 1009.14 1011.13 1010.75 1011.51 1012.22 1012.93 1013.96 1014.89
1014.10 1013.55 1013.03 1012.47 1011.74 1010.94 1010.34 1009.75 1009.18 1008.70 1008.68 1008.27 1008.21 1008.57 1008.83 1008.77 1008.48 1008.87 1009.29 1009.29 1008.93 1009.36 1009.05 1008.91 1008.68 1007.73 1007.24 1007.96 1008.58 1008.24 1009.13 1008.96 1008.89 1008.44 1008.10 1008.19 1009.64 1010.40 1010.56 1011.49 1012.04 1012.74 1013.15 1014.03 1014.98
1013.87 1013.32 1012.79 1012.19 1011.47 1010.64 1010.04 1009.42 1008.74 1008.47 1008.44 1008.23 1008.26 1008.43 1008.29 1008.10 1008.63 1009.05 1008.82 1008.91 1008.46 1008.52 1008.24 1008.96 1008.63 1007.33 1006.71 1006.98 1008.36 1008.56 1009.42 1009.54 1009.07 1008.81 1008.51 1008.75 1010.29 1010.84 1011.19 1011.70 1012.63 1013.16 1013.58 1014.02 1014.74
1013.58 1013.09 1012.51 1011.92 1011.21 1010.37 1009.67 1008.98 1008.39 1008.14 1008.01 1007.94 1008.27 1008.30 1008.13 1008.28 1008.49 1008.36 1008.45 1008.53 1008.53 1007.82 1008.29 1007.71 1007.87 1007.25 1006.54 1006.98 1008.49 1008.87 1009.06 1009.30 1009.55 1009.22 1009.04 1009.29 1010.75 1011.42 1011.77 1011.97 1012.98 1013.54 1013.76 1014.01 1014.61
1013.33 1012.75 1012.23 1011.63 1010.94 1010.16 1009.31 1008.91 1008.43 1008.16 1008.13 1007.98 1008.03 1008.55 1008.18 1007.92 1007.09 1007.92 1008.11 1008.10 1007.96 1008.26 1008.20 1008.66 1007.37 1006.88 1006.61 1006.82 1007.44 1008.56 1009.14 1009.62 1009.53 1009.80 1009.73 1010.03 1010.93 1011.60 1012.18 1012.27 1012.82 1013.64 1013.96 1014.21 1014.37
1013.08 1012.39 1011.87 1011.31 1010.80 1010.20 1009.54 1009.21 1009.64 1009.57 1009.49 1009.52 1008.95 1008.63 1008.25 1007.35 1006.53 1007.44 1007.66 1007.55 1007.20 1006.56 1007.17 1006.29 1005.96 1006.23 1006.43 1006.58 1007.03 1008.16 1008.58 1009.42 1009.75 1009.69 1009.95 1010.60 1011.43 1011.90 1012.38 1013.01 1013.37 1013.92 1014.12 1014.15 1014.33
1012.89 1012.06 1011.56 1011.03 1010.71 1010.64 1010.39 1010.85 1011.61 1011.74 1010.89 1009.61 1009.00 1008.39 1007.82 1007.32 1007.58 1007.02 1007.64 1007.73 1007.01 1006.51 1006.21 1006.01 1006.40 1006.31 1006.67 1006.95 1007.76 1008.63 1009.37 1010.04 1010.04 1009.94 1010.16 1011.29 1011.93 1012.17 1012.29 1012.40 1012.59 1013.35 1013.92 1013.95 1014.25
1012.67 1011.88 1011.29 1010.79 1010.66 1011.30 1011.64 1012.08 1011.80 1011.71 1011.44 1010.18 1009.25 1008.48 1008.02 1007.51 1007.38 1006.80 1007.31 1007.26 1006.68 1006.22 1005.74 1005.65 1006.39 1006.80 1006.77 1007.37 1008.08 1008.89 1009.19 1009.72 1010.00 1010.45 1011.12 1011.56 1012.35 1012.52 1012.53 1012.64 1013.19 1013.42 1013.69 1014.07 1014.07
1012.66 1012.04 1011.32 1010.43 1010.84 1011.72 1012.11 1011.99 1011.83 1011.77 1011.86 1011.45 1009.61 1008.91 1008.56 1007.62 1007.56 1007.24 1007.21 1007.52 1007.38 1006.10 1006.26 1006.48 1006.76 1006.35 1007.05 1007.74 1007.96 1008.94 1009.22 1009.67 1010.46 1011.01 1011.82 1011.67 1012.56 1012.62 1012.31 1012.56 1013.02 1013.36 1013.60 1013.61 1013.83
1012.47 1012.09 1011.53 1010.60 1011.36 1012.14 1012.41 1012.01 1011.66 1012.09 1012.99 1012.69 1010.62 1010.11 1009.32 1008.48 1008.06 1007.55 1007.37 1006.41 1006.43 1006.36 1005.79 1007.43 1006.98 1007.22 1007.95 1008.19 1008.15 1008.85 1009.14 1009.90 1010.83 1011.79 1012.30 1012.75 1013.27 1012.15 1012.26 1012.53 1012.54 1012.76 1012.94 1013.16 1013.25
1012.45 1012.14 1011.62 1011.37 1011.56 1012.01 1011.91 1011.90 1012.23 1013.41 1015.31 1013.93 1012.55 1011.16 1010.11 1009.08 1008.48 1008.16 1007.35 1007.49 1007.45 1006.89 1007.49 1007.50 1007.34 1007.65 1008.27 1008.50 1008.47 1008.71 1009.95 1011.04 1011.92 1012.89 1013.46 1012.97 1012.79 1012.04 1011.38 1010.76 1011.65 1012.00 1012.17 1012.44 1012.83
1012.42 1012.19 1011.73 1011.68 1012.03 1011.79 1011.89 1012.58 1013.91 1016.64 1017.48 1016.35 1014.87 1013.37 1011.97 1011.29 1010.50 1010.15 1009.81 1009.75 1009.99 1009.49 1009.44 1009.16 1009.25 1008.64 1008.39 1008.63 1008.82 1008.93 1010.20 1012.31 1013.60 1014.12 1013.79 1013.43 1013.17 1011.43 1010.75 1010.16 1010.32 1011.00 1011.45 1011.76 1012.16
1012.47 1012.31 1012.07 1011.99 1011.55 1011.47 1012.03 1014.09 1015.90 1018.69 1018.53 1017.64 1016.63 1015.29 1014.67 1013.96 1012.99 1012.31 1011.53 1012.05 1011.68 1010.83 1011.17 1011.12 1011.09 1009.71 1008.88 1009.01 1009.01 1009.48 1009.88 1011.19 1013.04 1014.27 1014.25 1013.89 1013.07 1011.13 1010.22 1010.14 1010.07 1010.11 1010.48 1011.15 1011.73
1012.68 1012.88 1013.01 1012.54 1011.52 1011.08 1013.25 1014.81 1019.58 1019.65 1019.29 1018.49 1017.70 1017.55 1016.87 1015.92 1015.77 1014.98 1015.51 1015.83 1015.74 1014.51 1013.64 1012.61 1011.56 1010.06 1009.39 1008.67 1009.17 1009.75 1010.49 1010.53 1012.77 1014.17 1014.36 1014.41 1013.20 1011.89 1011.18 1011.09 1011.15 1011.30 1011.43 1011.66 1012.02
1013.60 1013.96 1014.09 1013.47 1012.67 1012.90 1014.38 1018.25 1019.96 1020.04 1019.30 1019.03 1019.39 1019.37 1019.43 1018.69 1017.76 1017.19 1017.30 1017.52 1016.35 1015.86 1015.23 1013.64 1012.40 1011.08 1010.09 1009.71 1009.38 1009.50 1010.26 1011.09 1012.12 1014.09 1014.72 1015.03 1014.55 1014.21 1014.03 1014.10 1013.53 1012.86 1012.85 1012.68 1012.91
1014.08 1014.96 1014.96 1014.21 1013.98 1015.70 1018.69 1020.15 1020.06 1019.67 1019.42 1019.37 1019.90 1020.25 1020.66 1020.33 1019.82 1019.07 1019.33 1018.54 1017.62 1016.54 1015.39 1014.14 1012.60 1011.95 1010.68 1010.30 1009.88 1010.08 1010.20 1010.99 1011.87 1013.14 1014.47 1015.74 1015.96 1016.26 1016.68 1016.84 1016.11 1016.15 1015.78 1015.41 1015.03
1015.25 1016.81 1016.18 1015.21 1016.95 1019.84 1021.58 1021.44 1021.00 1020.42 1019.87 1019.73 1020.07 1020.42 1020.68 1020.36 1020.01 1019.67 1019.63 1018.76 1018.16 1017.24 1016.02 1015.22 1013.82 1012.89 1011.26 1010.74 1010.32 1010.43 1010.52 1011.00 1011.81 1013.32 1014.29 1015.35 1016.83 1017.47 1018.07 1018.62 1018.37 1018.19 1017.93 1017.77 1017.56
1017.81 1018.57 1017.21 1016.83 1021.03 1022.97 1023.09 1022.99 1022.70 1021.99 1021.50 1021.23 1021.25 1021.34 1021.14 1021.06 1020.90 1020.74 1020.20 1019.17 1018.59 1017.63 1016.91 1015.81 1014.51 1013.91 1013.76 1012.79 1011.30 1011.25 1011.20 1011.17 1011.79 1012.56 1013.87 1015.62 1017.41 1018.55 1019.05 1019.70 1020.16 1019.96 1019.79 1019.77 1019.54
1019.36 1020.79 1020.88 1021.45 1023.80 1024.60 1024.98 1024.69 1023.93 1023.21 1022.77 1022.57 1022.44 1021.94 1021.79 1021.49 1021.35 1021.37 1020.84 1019.75 1018.88 1018.34 1017.32 1016.31 1015.22 1013.99 1013.07 1012.19 1011.74 1012.03 1011.83 1011.69 1012.30 1013.39 1014.16 1015.60 1017.79 1019.20 1020.28 1021.03 1021.48 1021.47 1021.22 1021.31 1021.14
1021.01 1024.44 1024.77 1025.15 1025.54 1026.51 1026.31 1026.28 1025.23 1024.58 1023.94 1023.48 1023.13 1023.35 1023.43 1022.95 1022.08 1021.91 1021.50 1020.55 1019.72 1019.59 1018.39 1017.56 1016.67 1015.65 1014.46 1013.92 1013.41 1012.92 1012.78 1013.03 1013.46 1014.04 1015.03 1016.34 1018.04 1020.03 1021.39 1022.08 1022.55 1022.63 1022.44 1022.35 1022.20
1022.52 1024.09 1025.40 1026.09 1026.68 1027.08 1027.10 1027.61 1026.49 1025.42 1024.89 1024.48 1024.54 1024.42 1024.03 1024.83 1025.16 1024.46 1023.64 1022.76 1022.43 1020.74 1019.79 1019.24 1018.34 1017.10 1015.98 1015.06 1014.43 1014.71 1014.74 1014.70 1015.23 1015.97 1016.82 1018.07 1020.15 1021.44 1022.34 1022.90 1023.39 1023.74 1023.56 1023.53 1023.38
1023.39 1023.76 1024.64 1026.69 1027.35 1027.64 1028.07 1027.37 1026.63 1025.83 1025.05 1024.41 1024.57 1024.85 1024.83 1024.71 1024.52 1024.05 1023.80 1023.43 1023.22 1022.78 1021.66 1020.76 1019.97 1018.96 1017.71 1016.54 1016.17 1017.15 1017.44 1017.58 1018.01 1018.62 1019.32 1020.35 1021.17 1022.35 1023.33 1023.90 1024.44 1024.71 1024.63 1024.53 1024.36
Thickness
5546 5529 5513 5498 5484 5470 5453 5433 5419 5415 5417 5418 5419 5423 5427 5430 5433 5438 5462 5490 5509 5526 5541 5562 5575 5586 5587 5595 5615 5616 5602 5611 5633 5647 5667 5673 5677 5678 5684 5679 5678 5681 5683 5685 5679
5532 5514 5498 5484 5468 5452 5436 5420 5413 5411 5413 5417 5418 5418 5422 5425 5427 5431 5445 5471 5492 5512 5526 5542 5565 5577 5576 5585 5603 5606 5601 5621 5650 5666 5669 5677 5680 5676 5672 5670 5666 5674 5680 5677 5678
5523 5505 5487 5472 5459 5441 5426 5414 5412 5411 5414 5417 5417 5417 5419 5421 5424 5432 5438 5451 5468 5484 5508 5526 5545 5567 5574 5583 5601 5609 5613 5632 5655 5668 5679 5676 5675 5681 5675 5667 5679 5675 5675 5673 5674
5513 5497 5479 5465 5450 5433 5421 5413 5413 5413 5414 5418 5419 5417 5416 5420 5429 5430 5438 5443 5459 5480 5499 5514 5533 5557 5571 5583 5605 5605 5623 5637 5655 5668 5673 5671 5675 5671 5692 5690 5688 5691 5687 5677 5673
5508 5490 5473 5458 5445 5430 5419 5414 5414 5414 5414 5417 5420 5419 5415 5420 5427 5431 5432 5435 5448 5468 5499 5512 5533 5558 5574 5589 5594 5603 5615 5633 5650 5657 5668 5670 5671 5673 5671 5683 5682 5681 5678 5672 5670
5503 5484 5468 5453 5442 5430 5419 5416 5416 5416 5414 5419 5423 5420 5418 5422 5429 5428 5431 5437 5447 5468 5493 5507 5533 5569 5582 5587 5591 5605 5615 5632 5641 5648 5662 5664 5662 5672 5657 5675 5673 5674 5674 5670 5667
5498 5481 5465 5451 5440 5430 5422 5418 5418 5417 5415 5419 5421 5421 5421 5424 5427 5427 5427 5433 5451 5470 5494 5510 5527 5551 5574 5575 5587 5598 5601 5620 5628 5642 5652 5660 5651 5650 5664 5668 5667 5667 5670 5668 5665
5497 5480 5464 5450 5440 5431 5424 5420 5422 5420 5418 5420 5420 5421 5423 5428 5424 5423 5429 5433 5451 5471 5490 5502 5521 5554 5570 5587 5577 5584 5596 5599 5619 5633 5646 5650 5632 5644 5659 5662 5658 5659 5663 5667 5666
5498 5480 5465 5449 5440 5432 5427 5423 5424 5423 5422 5422 5420 5422 5424 5424 5426 5426 5430 5436 5450 5477 5487 5508 5524 5546 5562 5566 5559 5571 5585 5592 5608 5624 5636 5640 5624 5640 5653 5658 5654 5653 5660 5664 5665
5500 5483 5467 5452 5441 5433 5429 5423 5423 5424 5422 5423 5425 5418 5424 5427 5441 5429 5431 5439 5455 5470 5497 5504 5528 5539 5555 5559 5554 5563 5580 5592 5597 5610 5622 5628 5625 5638 5645 5652 5654 5650 5655 5659 5664
5503 5490 5472 5458 5442 5432 5426 5419 5405 5407 5407 5406 5416 5417 5422 5432 5441 5435 5438 5446 5466 5498 5499 5524 5533 5537 5553 5578 5596 5591 5592 5596 5601 5615 5622 5619 5616 5633 5637 5639 5643 5644 5649 5657 5662
5508 5495 5479 5463 5444 5431 5420 5406 5394 5392 5393 5407 5416 5424 5430 5432 5426 5444 5444 5452 5475 5502 5522 5528 5533 5553 5567 5571 5576 5583 5581 5584 5601 5616 5616 5614 5616 5624 5634 5642 5650 5647 5649 5655 5659
5513 5501 5486 5470 5448 5426 5411 5398 5395 5393 5391 5405 5416 5424 5427 5435 5438 5452 5458 5465 5485 5515 5527 5538 5543 5548 5564 5564 5572 5573 5586 5586 5596 5607 5609 5612 5610 5618 5629 5635 5637 5641 5646 5649 5657
5518 5505 5494 5482 5458 5425 5405 5399 5395 5395 5372 5394 5413 5424 5430 5445 5449 5463 5473 5475 5490 5529 5533 5537 5546 5563 5563 5565 5576 5571 5586 5596 5598 5600 5584 5609 5577 5606 5622 5629 5633 5635 5641 5650 5656
5524 5509 5498 5488 5462 5431 5409 5403 5400 5396 5342 5397 5415 5425 5437 5450 5462 5472 5480 5500 5520 5531 5546 5531 5545 5549 5550 5562 5578 5579 5591 5594 5597 5587 5590 5597 5583 5602 5615 5617 5628 5636 5644 5650 5659
5531 5514 5502 5490 5471 5446 5427 5412 5406 5373 5347 5381 5410 5425 5443 5461 5475 5481 5496 5501 5506 5534 5538 5539 5555 5555 5555 5561 5573 5584 5581 5580 5577 5574 5566 5583 5587 5602 5612 5638 5635 5640 5647 5654 5659
5538 5521 5513 5498 5478 5460 5442 5419 5386 5367 5389 5387 5409 5429 5447 5454 5473 5478 5483 5485 5486 5518 5524 5532 5533 5549 5561 5561 5572 5580 5580 5542 5542 5540 5559 5576 5585 5601 5622 5641 5651 5650 5652 5659 5662
5543 5527 5520 5505 5493 5480 5461 5420 5393 5392 5384 5408 5419 5437 5438 5451 5465 5480 5490 5484 5490 5519 5518 5517 5514 5542 5556 5557 5565 5572 5570 5561 5534 5536 5556 5567 5568 5600 5627 5639 5649 5657 5661 5660 5662
5547 5531 5522 5514 5508 5504 5473 5439 5394 5400 5411 5416 5426 5418 5426 5445 5445 5465 5462 5461 5461 5473 5511 5515 5527 5543 5556 5566 5567 5564 5556 5574 5547 5552 5559 5561 5585 5612 5619 5626 5633 5639 5646 5651 5656
5545 5530 5522 5514 5512 5503 5481 5429 5412 5416 5425 5425 5408 5413 5401 5425 5439 5433 5453 5453 5463 5468 5475 5508 5514 5539 5550 5559 5566 5566 5568 5552 5547 5539 5553 5552 5572 5584 5585 5584 5606 5623 5632 5640 5644
5545 5523 5517 5514 5509 5489 5429 5430 5432 5432 5431 5430 5422 5409 5404 5422 5401 5412 5434 5452 5460 5470 5485 5502 5529 5531 5546 5544 5549 5555 5557 5558 5560 5547 5541 5544 5557 5555 5558 5559 5579 5580 5587 5600 5611
5538 5508 5514 5512 5484 5437 5423 5438 5440 5431 5432 5433 5431 5431 5425 5433 5431 5425 5442 5455 5458 5465 5488 5491 5516 5525 5543 5546 5554 5556 5556 5555 5546 5556 5547 5546 5548 5535 5540 5541 5553 5557 5566 5573 5583
5514 5505 5511 5505 5447 5416 5440 5436 5429 5426 5424 5422 5423 5425 5434 5436 5434 5437 5446 5460 5463 5464 5478 5485 5510 5510 5517 5531 5548 5548 5554 5559 5556 5555 5556 5545 5549 5524 5527 5530 5531 5540 5546 5551 5560
5505 5484 5485 5473 5442 5430 5427 5426 5428 5426 5424 5419 5417 5421 5426 5433 5435 5434 5435 5452 5459 5464 5478 5487 5514 5523 5531 5540 5545 5541 5549 5557 5556 5543 5553 5550 5525 5522 5513 5513 5516 5520 5529 5534 5541
5495 5454 5445 5442 5440 5404 5410 5391 5400 5404 5418 5418 5416 5410 5405 5400 5426 5429 5431 5440 5456 5450 5460 5471 5497 5504 5515 5512 5525 5540 5545 5545 5548 5554 5550 5551 5536 5504 5496 5499 5500 5507 5513 5518 5525
5487 5468 5447 5416 5403 5410 5414 5389 5400 5405 5406 5400 5390 5401 5394 5369 5374 5379 5405 5418 5417 5436 5440 5448 5478 5490 5503 5506 5515 5511 5507 5541 5539 5529 5528 5517 5494 5479 5480 5488 5489 5488 5496 5499 5505
5482 5476 5459 5443 5407 5411 5396 5407 5410 5419 5419 5426 5413 5390 5394 5404 5403 5403 5403 5408 5411 5413 5420 5413 5442 5456 5480 5496 5503 5506 5467 5470 5473 5457 5478 5516 5486 5467 5469 5472 5469 5472 5478 5484 5488